RH
27 24 24 24 28 28 29 29 32 41 47 50 48 49 49 48 48 47 46 48 48 48
31 27 25 23 22 26 29 32 35 41 47 50 49 47 50 47 47 48 49 49 50 49
32 29 26 26 23 28 28 33 37 42 48 50 49 46 49 50 47 47 49 49 47 46
33 27 26 27 25 27 27 33 37 42 46 49 50 48 51 52 52 49 47 47 48 48
36 30 25 27 26 25 28 32 36 43 46 50 53 52 51 52 56 57 48 44 47 50
34 31 25 23 26 25 26 30 36 42 46 49 50 50 52 58 60 64 64 56 50 52
32 32 24 21 26 26 26 29 34 39 44 49 52 53 57 60 64 68 73 73 65 56
34 35 29 21 25 26 27 31 35 40 46 50 53 55 57 59 62 72 77 79 73 65
35 34 30 23 22 25 28 30 33 37 41 44 47 51 52 60 69 81 82 76 75 67
36 34 31 28 22 23 25 29 30 34 37 38 42 43 52 61 63 66 79 77 76 68
34 34 31 32 26 23 25 26 28 32 36 39 41 47 56 66 57 59 70 76 77 68
36 35 33 30 30 27 27 27 27 33 38 40 45 56 62 67 61 64 76 78 69 63
34 36 38 37 35 35 31 31 31 36 40 44 54 59 61 62 63 70 75 68 64 58
37 34 35 40 43 38 37 35 35 40 47 53 61 64 69 63 65 67 66 63 60 58